When you browse on this site, cookies collect data to enhance your experience and personalize the content and advertising you see.
Visit our Privacy Policy to learn more. By continuing to use the site, you agree to this use of cookies and data.
  • In Austria
  • List of Countries
  • For 7 days
  • Water Temperature
  • Satellite Maps
  • Weather Map
  • News
  • Weather Widgets
  • user-avatar
    Login

    Hourly Weather Nietoperek

    Today, 20 February, Wednesday

    Time Temperature Precipitation Wind Pressure Humidity
    00:00 +3°C° 0 mm 5 mps 753 mmHg 83%
    01:00 +3°C° 0 mm 4 mps 753 mmHg 88%
    02:00 +3°C° 0 mm 4 mps 753 mmHg 88%
    03:00 +3°C° 0 mm 4 mps 753 mmHg 89%
    04:00 +2°C° 0 mm 5 mps 754 mmHg 90%
    05:00 +2°C° 0 mm 5 mps 754 mmHg 88%
    06:00 +2°C° 0 mm 5 mps 754 mmHg 87%
    07:00 +2°C° 0 mm 5 mps 754 mmHg 86%
    08:00 +3°C° 0 mm 5 mps 755 mmHg 83%
    09:00 +3°C° 0 mm 5 mps 755 mmHg 81%
    10:00 +3°C° 0 mm 5 mps 756 mmHg 78%
    11:00 +5°C° 0 mm 5 mps 756 mmHg 76%
    12:00 +5°C° 0 mm 5 mps 756 mmHg 73%
    13:00 +6°C° 0 mm 4 mps 756 mmHg 71%
    14:00 +6°C° 0 mm 4 mps 757 mmHg 71%
    15:00 +7°C° 0 mm 3 mps 757 mmHg 71%
    16:00 +7°C° 0 mm 3 mps 757 mmHg 71%
    17:00 +7°C° 0 mm 2 mps 757 mmHg 73%
    18:00 +7°C° 0 mm 2 mps 758 mmHg 76%
    19:00 +6°C° 0 mm 2 mps 758 mmHg 79%
    20:00 +6°C° 0 mm 2 mps 758 mmHg 80%
    21:00 +6°C° 0 mm 2 mps 758 mmHg 81%
    22:00 +5°C° 0 mm 3 mps 759 mmHg 83%
    23:00 +6°C° 0 mm 2 mps 759 mmHg 85%

    Tomorrow, 21 February, Thursday

    Time Temperature Precipitation Wind Pressure Humidity
    00:00 +5°C° 0 mm 2 mps 759 mmHg 87%
    01:00 +5°C° 0 mm 2 mps 759 mmHg 89%
    02:00 +4°C° 0 mm 3 mps 759 mmHg 87%
    03:00 +4°C° 0 mm 3 mps 758 mmHg 85%
    04:00 +4°C° 0 mm 3 mps 758 mmHg 82%
    05:00 +4°C° 0.1 mm 3 mps 758 mmHg 83%
    06:00 +4°C° 0.1 mm 4 mps 758 mmHg 83%
    07:00 +4°C° 0.1 mm 4 mps 758 mmHg 83%
    08:00 +5°C° 0.3 mm 4 mps 758 mmHg 82%
    09:00 +5°C° 0.3 mm 5 mps 758 mmHg 81%
    10:00 +5°C° 0.3 mm 5 mps 758 mmHg 80%
    11:00 +5°C° 0.7 mm 5 mps 758 mmHg 81%
    12:00 +4°C° 0.7 mm 6 mps 757 mmHg 83%
    13:00 +4°C° 0.7 mm 6 mps 757 mmHg 84%
    14:00 +5°C° 0.6 mm 6 mps 757 mmHg 84%
    15:00 +6°C° 0.6 mm 5 mps 757 mmHg 84%
    16:00 +6°C° 0.6 mm 5 mps 756 mmHg 85%
    17:00 +6°C° 0.3 mm 5 mps 757 mmHg 86%
    18:00 +6°C° 0.3 mm 5 mps 757 mmHg 87%
    19:00 +7°C° 0.3 mm 5 mps 757 mmHg 88%
    20:00 +7°C° 0.3 mm 5 mps 757 mmHg 89%
    21:00 +7°C° 0.3 mm 5 mps 757 mmHg 89%
    22:00 +7°C° 0.3 mm 5 mps 757 mmHg 89%
    23:00 +7°C° 0.2 mm 5 mps 757 mmHg 89%

    Day after tomorrow, 22 February, Friday

    Time Temperature Precipitation Wind Pressure Humidity
    00:00 +7°C° 0.2 mm 5 mps 757 mmHg 88%
    01:00 +7°C° 0.2 mm 5 mps 758 mmHg 88%
    02:00 +6°C° 0.1 mm 5 mps 758 mmHg 88%
    03:00 +6°C° 0.1 mm 5 mps 759 mmHg 87%
    04:00 +6°C° 0.1 mm 5 mps 759 mmHg 87%
    05:00 +4°C° 0.1 mm 6 mps 760 mmHg 84%
    06:00 +2°C° 0.1 mm 6 mps 761 mmHg 82%
    07:00 +1°C° 0.1 mm 6 mps 762 mmHg 80%
    08:00 +1°C° 0 mm 5 mps 764 mmHg 74%
    09:00 0°C° 0 mm 5 mps 765 mmHg 69%
    10:00 0°C° 0 mm 4 mps 766 mmHg 64%
    11:00 0°C° 0 mm 4 mps 767 mmHg 58%
    12:00 +1°C° 0 mm 4 mps 767 mmHg 52%
    13:00 +3°C° 0 mm 4 mps 768 mmHg 46%
    14:00 +1°C° 0 mm 4 mps 769 mmHg 46%
    15:00 +2°C° 0 mm 3 mps 769 mmHg 46%
    16:00 +2°C° 0 mm 3 mps 769 mmHg 45%
    17:00 +1°C° 0 mm 3 mps 770 mmHg 49%
    18:00 +1°C° 0 mm 2 mps 770 mmHg 54%
    19:00 -1°C° 0 mm 2 mps 771 mmHg 58%
    20:00 -1°C° 0 mm 2 mps 771 mmHg 58%
    21:00 -2°C° 0 mm 2 mps 772 mmHg 58%
    22:00 -2°C° 0 mm 2 mps 772 mmHg 58%
    23:00 -3°C° 0 mm 2 mps 772 mmHg 56%

    23 February, Saturday

    Time Temperature Precipitation Wind Pressure Humidity
    00:00 -3°C° 0 mm 2 mps 773 mmHg 54%
    01:00 -4°C° 0 mm 3 mps 773 mmHg 52%
    02:00 -3°C° 0 mm 2 mps 773 mmHg 51%
    03:00 -3°C° 0 mm 2 mps 772 mmHg 50%
    04:00 -3°C° 0 mm 2 mps 772 mmHg 49%
    05:00 -3°C° 0 mm 2 mps 772 mmHg 48%
    06:00 -3°C° 0 mm 2 mps 773 mmHg 47%
    07:00 -3°C° 0 mm 2 mps 773 mmHg 47%
    08:00 -3°C° 0 mm 2 mps 773 mmHg 42%
    09:00 -2°C° 0 mm 2 mps 773 mmHg 38%
    10:00 -1°C° 0 mm 2 mps 773 mmHg 34%
    11:00 -1°C° 0 mm 2 mps 773 mmHg 31%
    12:00 +1°C° 0 mm 2 mps 773 mmHg 28%
    13:00 +2°C° 0 mm 2 mps 773 mmHg 25%
    14:00 +2°C° 0 mm 2 mps 773 mmHg 26%
    15:00 +3°C° 0 mm 1 mps 772 mmHg 27%
    16:00 +3°C° 0 mm 1 mps 772 mmHg 28%
    17:00 +2°C° 0 mm 1 mps 772 mmHg 31%
    18:00 +1°C° 0 mm 1 mps 772 mmHg 33%
    19:00 +1°C° 0 mm 1 mps 772 mmHg 36%
    20:00 0°C° 0 mm 1 mps 772 mmHg 37%
    21:00 0°C° 0 mm 1 mps 772 mmHg 37%
    22:00 0°C° 0 mm 1 mps 772 mmHg 38%
    23:00 0°C° 0 mm 1 mps 771 mmHg 38%

    24 February, Sunday

    Time Temperature Precipitation Wind Pressure Humidity
    00:00 0°C° 0 mm 1 mps 771 mmHg 37%
    01:00 0°C° 0 mm 1 mps 771 mmHg 37%
    02:00 0°C° 0 mm 1 mps 771 mmHg 37%
    03:00 -1°C° 0 mm 0 mps 771 mmHg 36%
    04:00 -1°C° 0 mm 0 mps 770 mmHg 36%
    05:00 -1°C° 0 mm 0 mps 770 mmHg 36%
    06:00 -1°C° 0 mm 0 mps 770 mmHg 35%
    07:00 -1°C° 0 mm 0 mps 770 mmHg 35%
    08:00 0°C° 0 mm 0 mps 770 mmHg 32%
    09:00 +1°C° 0 mm 0 mps 770 mmHg 29%
    10:00 +2°C° 0 mm 0 mps 770 mmHg 27%
    11:00 +3°C° 0 mm 0 mps 770 mmHg 26%
    12:00 +4°C° 0 mm 0 mps 770 mmHg 26%
    13:00 +6°C° 0 mm 1 mps 770 mmHg 25%
    14:00 +6°C° 0 mm 1 mps 769 mmHg 29%
    15:00 +6°C° 0 mm 1 mps 769 mmHg 34%
    16:00 +6°C° 0 mm 1 mps 769 mmHg 38%
    17:00 +4°C° 0 mm 1 mps 769 mmHg 41%
    18:00 +3°C° 0 mm 1 mps 769 mmHg 43%
    19:00 +1°C° 0 mm 0 mps 769 mmHg 46%
    20:00 +2°C° 0 mm 1 mps 769 mmHg 47%
    21:00 +2°C° 0 mm 1 mps 769 mmHg 48%
    22:00 +2°C° 0 mm 1 mps 770 mmHg 50%
    23:00 +2°C° 0 mm 1 mps 770 mmHg 51%

    25 February, Monday

    Time Temperature Precipitation Wind Pressure Humidity
    00:00 +2°C° 0 mm 1 mps 770 mmHg 52%
    01:00 +1°C° 0 mm 1 mps 770 mmHg 54%
    02:00 +2°C° 0 mm 1 mps 769 mmHg 55%
    03:00 +2°C° 0 mm 1 mps 769 mmHg 56%
    04:00 +1°C° 0 mm 2 mps 769 mmHg 56%
    05:00 +1°C° 0 mm 2 mps 769 mmHg 58%
    06:00 -1°C° 0 mm 2 mps 769 mmHg 61%
    07:00 -1°C° 0 mm 2 mps 769 mmHg 63%
    08:00 +2°C° 0 mm 2 mps 769 mmHg 60%
    09:00 +3°C° 0 mm 2 mps 770 mmHg 57%
    10:00 +4°C° 0 mm 2 mps 770 mmHg 55%
    11:00 +4°C° 0 mm 3 mps 770 mmHg 56%
    12:00 +5°C° 0 mm 3 mps 770 mmHg 57%
    13:00 +8°C° 0 mm 3 mps 769 mmHg 58%
    14:00 +8°C° 0 mm 3 mps 769 mmHg 60%
    15:00 +8°C° 0 mm 2 mps 769 mmHg 63%
    16:00 +8°C° 0 mm 2 mps 769 mmHg 66%
    17:00 +7°C° 0 mm 2 mps 769 mmHg 72%
    18:00 +6°C° 0 mm 2 mps 769 mmHg 78%
    19:00 +5°C° 0 mm 1 mps 770 mmHg 84%
    20:00 +5°C° 0 mm 1 mps 770 mmHg 85%
    21:00 +4°C° 0 mm 1 mps 770 mmHg 86%
    22:00 +4°C° 0 mm 1 mps 770 mmHg 86%
    23:00 +4°C° 0 mm 1 mps 770 mmHg 86%
    Show more